Last 24 Hours

Squaw-Siberia 8700'

Hourly Data | America/Los_Angeles
as of 2/18/20 8:40 AM PST
Date & Time Temp (°F) RH (%) Dew Pt (°F) Wet Bulb (°F) Wind Dir (°) Wind Spd (mph) Wind Gust (mph) WindChill (°F) Daily Min Temp (°F) Daily Max Temp (°F)
2/18/20 - 0800 27.6 30 0.4 20.0 SW | 225 19.9 25.6 13.4 25.7 31.4
2/18/20 - 0700 26.0 33 1.0 19.1 SW | 217 18.3 23.1 13.0 25.7 31.4
2/18/20 - 0600 26.3 35 2.2 19.5 SW | 222 18.6 23.5 13.7 26.1 31.4
2/18/20 - 0500 28.1 30 0.9 20.4 SW | 232 16.5 23.8 16.0 27.1 31.4
2/18/20 - 0400 28.4 34 3.8 21.1 WSW | 241 18.4 24.4 15.7 27.5 31.4
2/18/20 - 0300 28.3 33 2.7 20.8 SW | 232 18.3 23.7 17.5 28.3 31.4
2/18/20 - 0200 30.6 26 -0.4 21.8 SW | 220 16.2 22.5 19.3 29.9 31.4
2/18/20 - 0100 30.5 28 1.3 22.0 SW | 220 14.5 18.1 20.1 30.2 31.4
2/18/20 - 0000 30.8 24 -1.8 21.7 SW | 219 13.1 17.6 21.4 20.1 33.5
2/17/20 - 2300 31.5 20 -5.0 21.7 SSW | 198 7.3 12.0 25.5 20.1 33.5
2/17/20 - 2200 29.7 17 -9.8 20.0 E | 86 - 0.2 29.1 20.1 33.5
2/17/20 - 2100 29.2 19 -7.6 20.0 E | 80 3.8 12.0 24.4 20.1 33.5
2/17/20 - 2000 27.2 26 -3.2 19.2 ENE | 64 12.2 16.1 16.6 20.1 33.5
2/17/20 - 1900 27.9 28 -1.0 20.0 ENE | 64 11.5 18.9 19.1 20.1 33.5
2/17/20 - 1800 30.5 19 -7.1 20.8 ENE | 68 4.4 11.8 27.2 20.1 33.5
2/17/20 - 1700 31.3 19 -6.7 21.4 ENE | 74 6.6 16.2 25.1 20.1 33.5
2/17/20 - 1600 30.8 21 -4.9 21.3 ENE | 76 10.9 17.3 22.5 20.1 33.5
2/17/20 - 1500 31.4 23 -2.0 22.1 ENE | 65 10.1 21.7 23.9 20.1 33.5
2/17/20 - 1400 31.7 26 0.7 22.7 ENE | 70 9.5 19.1 23.6 20.1 32.9
2/17/20 - 1300 31.2 25 -0.6 22.2 NE | 55 14.6 25.5 19.7 20.1 31.4
2/17/20 - 1200 28.7 30 0.9 20.8 ENE | 69 16.8 24.6 15.7 20.1 29.2
2/17/20 - 1100 27.2 32 1.3 19.9 ENE | 71 22.0 29.5 11.4 20.1 27.4
2/17/20 - 1000 24.8 39 3.6 18.7 ENE | 74 21.2 29.4 8.9 20.1 25.0
2/17/20 - 0900 23.4 45 5.4 18.2 ENE | 75 20.4 29.4 8.8 20.1 25.0
2/17/20 - 0800 24.2 31 -2.2 17.4 E | 79 18.7 28.6 9.2 20.1 25.0
Max 31.7 45 5.4 22.7 - 22.0 29.5 29.1 30.2 33.5
Avg 28.7 28 -1.1 20.5 - 14.3 20.6 18.4 - -
Min 23.4 17 -9.8 17.4 - 3.8 0.2 8.8 20.1 25.0